Track COSMOS 2498 now! 10-day predictions COSMOS 2498 is classified as:
1 39763U 14028C 21061.47198195 .00000033 00000-0 16885-3 0 9994 2 39763 82.4434 239.4570 0020325 325.1937 34.7811 12.42892852307497